Wind_Speed
11 13 16 17 17 13 15 13 11 16 26 30 34 38 39 40 42 37 34 36 37 37 33 31 32 33 32 34 34 35 36 37 37 37 37 39 43 45 46 44 43 42 41 39 38 38 38 38 38
13 15 17 18 20 16 10 13 6 19 28 36 37 39 44 45 44 38 39 36 34 35 30 30 33 36 33 32 35 37 38 37 37 38 39 41 43 46 48 46 43 42 41 41 40 41 40 40 40
14 18 22 21 19 18 10 15 16 23 29 34 40 43 49 42 39 34 37 37 35 35 31 30 31 32 35 35 35 36 37 38 38 41 43 44 46 46 44 43 43 42 42 43 42 43 44 43 42
18 23 25 24 17 9 6 19 17 25 28 39 43 48 45 42 35 31 35 38 37 33 34 33 32 32 31 33 34 36 37 38 40 43 45 46 45 43 42 42 42 41 41 42 42 44 46 47 46
23 28 28 23 14 10 14 20 25 27 34 30 41 49 46 41 36 35 37 35 37 36 37 36 35 35 33 33 34 36 37 38 41 45 46 44 42 41 42 37 35 36 38 41 42 42 46 46 48
24 28 32 26 15 14 19 24 28 25 23 36 41 44 45 42 37 36 35 34 38 39 32 32 33 33 33 35 38 39 39 41 43 44 43 41 40 42 39 40 41 42 41 39 40 41 44 46 47
33 37 38 29 20 10 16 30 27 26 20 29 32 36 41 40 39 38 36 37 33 33 31 29 29 30 32 34 34 34 38 42 43 42 41 40 40 42 42 42 42 41 39 40 39 37 41 43 46
31 35 31 25 23 9 10 33 21 13 23 29 39 38 40 40 35 37 42 36 28 29 26 26 25 25 28 30 30 32 37 40 40 40 39 40 40 39 42 43 41 38 38 41 40 37 41 41 45
33 33 33 29 28 17 19 23 25 24 29 37 48 41 39 39 39 41 30 28 19 23 27 24 22 26 30 34 32 34 37 39 40 39 37 37 37 37 37 36 35 36 36 37 40 40 39 39 42
38 40 40 32 26 21 22 25 29 31 33 38 39 43 42 35 38 41 35 33 28 27 27 26 27 28 32 33 33 36 36 37 37 34 32 34 33 33 31 30 29 28 30 32 35 37 39 36 39
36 41 34 25 29 19 21 19 23 31 32 33 36 36 34 33 30 24 22 27 25 28 28 29 27 29 32 32 33 37 36 34 33 34 34 31 31 30 28 26 25 28 29 30 31 36 35 35 36
45 43 35 35 39 26 21 20 23 28 27 30 35 29 30 23 22 22 26 26 27 27 28 28 28 30 31 32 34 34 33 29 30 31 30 30 30 27 24 21 22 23 27 24 27 28 32 33 34
53 54 49 46 33 33 27 22 26 22 26 31 31 28 26 19 19 19 24 24 27 28 30 29 31 30 31 32 34 32 31 28 25 31 31 30 28 25 20 19 21 21 20 18 21 25 30 30 32
57 58 55 41 35 30 27 25 24 21 19 28 26 22 20 22 25 22 24 26 30 30 33 32 31 29 29 33 32 33 27 27 28 34 27 29 25 23 18 18 21 17 15 15 17 23 27 29 30
62 55 49 36 34 23 25 27 20 21 20 25 30 25 21 24 23 23 23 25 29 30 32 31 31 28 28 30 29 28 24 31 32 32 30 25 21 21 17 16 19 11 13 14 14 20 25 25 30
38 36 33 29 21 17 19 23 17 19 23 29 28 22 28 32 28 22 23 26 29 31 32 30 30 28 29 29 28 28 28 28 27 29 28 22 23 20 15 14 14 10 11 16 15 21 23 25 26
28 26 23 13 12 12 12 21 23 26 20 24 27 30 32 36 33 25 24 27 30 31 30 30 28 26 27 27 28 26 27 25 27 31 26 22 22 20 13 13 11 10 10 17 19 22 25 24 24
17 20 17 9 5 8 12 27 26 26 22 27 32 33 34 36 34 26 24 27 28 28 28 27 27 26 26 26 26 26 22 26 28 25 21 23 21 20 9 10 11 8 8 15 20 22 27 24 24
23 21 16 16 4 18 25 23 19 25 25 26 26 21 22 31 33 23 23 23 24 25 26 24 24 25 25 25 23 25 22 24 26 23 22 22 22 20 6 6 4 3 9 13 22 28 28 24 26
23 23 19 14 12 26 16 20 20 32 26 24 24 24 27 26 25 18 20 22 21 24 24 24 22 23 23 23 21 22 21 22 23 22 20 22 23 16 4 4 3 3 9 11 24 30 26 27 28
25 24 15 20 20 24 20 25 28 32 25 22 21 24 30 31 19 19 21 20 22 24 21 21 20 21 21 21 18 20 22 22 20 20 20 21 19 15 3 3 3 7 9 13 23 24 21 23 29
29 20 20 23 23 31 29 35 32 24 18 17 20 24 32 37 27 23 21 19 23 21 20 18 19 19 20 18 16 18 20 24 19 20 21 21 18 14 4 3 5 8 11 13 19 24 22 26 25
21 23 22 18 15 18 25 29 16 21 21 18 29 22 32 38 35 24 21 18 21 18 18 17 18 17 18 16 14 16 16 21 15 21 23 21 17 13 4 4 5 5 12 15 18 19 21 26 24
22 24 21 15 19 28 23 22 3 8 14 19 25 30 34 39 32 22 17 17 18 18 15 16 16 16 16 14 12 13 14 17 20 20 19 22 12 15 5 5 8 12 12 16 16 17 22 25 24
31 24 26 26 31 34 23 23 3 8 12 18 24 27 29 25 13 16 12 16 14 15 13 15 15 15 15 12 11 13 13 14 20 19 17 17 10 13 9 10 9 12 13 15 17 19 21 23 22
32 26 33 31 32 25 12 22 9 17 15 16 24 24 25 25 16 13 11 16 15 11 12 15 15 14 12 8 9 12 10 12 17 20 18 18 12 7 11 8 13 14 15 16 17 18 19 21 22
30 33 24 29 27 21 11 15 4 15 14 20 25 25 26 20 15 13 13 15 14 9 12 14 13 12 12 6 7 9 12 10 13 19 17 16 15 8 7 10 10 16 16 15 15 15 16 18 20
34 27 29 34 33 32 24 22 13 19 24 25 29 27 28 21 16 13 11 12 10 7 12 14 13 14 11 3 7 9 11 11 13 19 14 17 18 12 13 12 11 15 16 15 14 12 16 18 19
35 37 38 33 31 27 22 23 17 21 22 25 23 28 28 16 15 12 12 9 5 7 12 14 15 14 9 5 7 9 10 11 13 17 14 10 15 15 15 13 15 19 18 15 15 17 21 20 19
34 37 39 41 36 25 21 15 17 20 23 26 22 26 27 12 12 10 3 7 2 7 12 14 15 14 10 9 7 8 11 11 14 16 14 13 9 9 16 15 20 18 17 19 18 18 18 19 22
Wind_Direction
302 309 319 326 336 320 275 282 234 282 274 264 261 261 270 278 298 291 296 294 301 306 310 311 306 303 302 300 300 299 299 302 301 300 301 302 301 298 295 292 289 288 286 281 275 270 266 259 253
303 319 322 337 332 314 285 316 274 273 276 277 284 285 288 289 294 295 292 295 298 301 309 309 305 304 302 300 303 304 304 303 302 304 304 302 299 295 292 289 287 284 282 278 273 267 261 256 253
300 314 325 321 329 292 281 305 292 259 278 285 288 293 303 303 302 298 303 300 300 300 307 310 306 305 306 306 304 304 305 304 304 306 304 301 298 296 293 291 287 284 281 277 272 266 258 252 247
290 303 319 324 319 292 288 287 286 288 294 294 292 301 302 304 311 302 301 302 304 309 307 310 309 307 302 301 303 305 304 305 307 305 303 299 296 293 293 290 286 283 278 275 269 263 258 253 246
292 297 304 313 306 281 295 280 296 285 277 293 298 299 306 308 303 308 304 307 304 308 310 314 313 308 305 304 305 305 305 305 307 304 300 297 294 293 291 285 284 283 278 270 266 260 256 251 246
297 297 302 310 298 292 297 293 299 280 271 290 292 301 300 304 312 308 307 307 310 308 310 307 305 306 310 310 309 309 308 308 307 305 301 298 295 293 291 287 286 282 276 267 260 257 252 249 243
291 291 300 309 310 293 306 295 287 290 298 288 298 296 298 306 311 309 304 305 310 314 308 310 304 300 295 300 303 301 305 308 307 306 301 298 293 291 290 286 282 279 269 259 257 253 251 243 239
283 283 290 303 310 241 294 290 318 304 281 302 298 296 301 305 309 307 311 315 315 315 310 296 288 289 293 298 304 306 313 311 307 304 301 298 295 293 290 286 279 272 265 256 248 251 251 240 233
278 276 293 289 298 276 246 274 272 274 280 293 291 286 300 322 318 320 318 309 308 315 313 300 302 305 311 314 309 312 317 314 312 309 305 303 300 296 293 285 279 272 263 258 252 246 246 238 229
275 277 294 286 303 281 266 261 274 282 283 279 287 297 313 315 319 312 306 296 308 312 311 316 312 319 313 313 312 318 317 315 314 309 309 305 303 298 297 290 279 271 266 262 254 246 241 233 223
280 283 281 296 299 278 294 289 277 274 277 276 288 302 317 318 319 320 315 320 326 322 325 321 316 318 318 315 317 323 322 319 320 319 316 311 305 302 297 288 277 278 275 273 253 242 233 225 218
277 278 281 286 296 288 303 289 279 282 282 281 289 307 309 316 318 308 313 324 325 327 329 324 319 318 318 319 321 323 321 321 327 326 314 317 310 309 301 286 289 287 277 263 244 235 222 217 210
274 277 280 275 284 281 291 283 277 283 297 286 292 303 308 303 313 313 319 318 316 320 324 324 324 325 322 323 326 325 321 323 325 326 320 319 317 311 300 291 294 289 271 249 235 225 206 210 205
277 277 284 281 272 268 278 272 287 299 303 289 302 297 311 298 306 320 326 318 318 321 328 328 326 326 325 327 327 324 322 321 321 329 322 324 320 311 301 294 295 290 262 242 231 210 200 206 200
266 272 275 261 265 267 272 284 291 304 311 295 302 314 314 316 311 309 318 313 311 326 327 327 325 327 325 332 329 331 328 327 320 320 322 319 324 319 312 302 309 294 252 230 219 201 194 200 198
260 251 253 259 260 264 269 289 296 307 300 303 305 307 310 315 319 323 316 314 319 327 326 326 327 328 330 332 329 334 329 331 328 331 334 330 328 326 319 309 312 300 239 218 200 190 187 193 195
232 248 263 266 258 257 269 302 308 298 286 303 310 309 305 310 316 322 316 313 321 325 323 325 330 325 331 329 330 332 334 335 334 332 334 331 332 331 318 313 310 312 223 207 197 185 190 187 186
265 267 265 244 206 307 288 277 277 295 301 310 316 310 297 296 310 317 311 314 319 321 318 329 328 327 330 330 327 329 334 335 341 336 339 339 340 336 313 315 310 302 205 197 194 189 189 186 184
253 250 230 191 165 280 277 260 277 306 290 305 302 283 299 315 309 317 308 317 317 318 321 330 326 329 330 331 331 331 331 333 339 335 344 342 339 337 324 332 326 6 174 196 191 183 182 186 185
233 231 226 237 182 261 278 289 297 291 308 282 302 317 324 325 314 308 323 316 318 318 326 328 327 330 335 330 335 335 338 336 339 339 337 345 345 342 357 345 14 98 155 165 163 170 168 188 181
234 232 225 246 200 216 251 257 263 267 275 300 303 297 304 316 329 319 325 315 320 316 324 325 328 332 335 332 341 341 341 339 346 346 346 353 358 357 40 34 70 120 144 160 167 174 178 171 179
235 234 234 238 220 220 232 253 253 265 299 271 282 273 290 306 333 320 322 315 316 317 326 325 332 333 333 334 344 334 349 354 355 12 12 3 4 6 92 81 93 114 133 146 164 172 172 173 175
247 237 241 236 231 251 249 258 284 276 266 266 264 285 295 311 320 316 312 311 318 323 323 330 338 337 334 336 348 346 5 3 8 11 18 9 9 21 111 120 115 121 144 139 150 166 171 171 176
235 231 221 211 238 257 267 273 6 223 261 310 311 311 320 316 317 307 304 314 321 325 326 335 341 339 333 341 345 343 355 2 7 10 18 10 24 32 90 140 125 129 132 140 150 161 171 179 181
218 212 209 214 225 239 250 264 255 225 263 276 317 318 328 319 309 295 305 325 321 328 331 343 344 339 332 344 344 340 347 4 9 17 19 29 32 36 69 148 142 138 142 145 150 157 168 176 185
223 205 224 210 227 246 260 241 313 265 225 263 304 300 332 322 309 296 319 330 325 330 340 354 351 345 340 355 345 353 355 2 10 19 32 33 32 65 66 106 164 153 147 146 145 156 161 169 178
209 219 226 222 236 251 229 254 318 292 277 268 288 299 320 321 308 310 314 316 324 334 355 4 5 353 352 7 354 353 5 354 19 21 31 51 46 84 62 74 141 163 150 146 150 155 169 171 177
218 213 219 222 223 232 229 234 236 272 290 293 306 310 324 322 311 302 324 317 325 352 7 12 9 354 355 7 8 358 5 9 24 35 48 56 43 55 86 87 108 147 154 148 150 165 174 180 177
211 202 221 238 244 239 245 243 242 244 276 283 297 309 326 307 306 300 310 308 329 13 19 20 18 18 22 36 13 7 20 20 32 34 46 70 51 58 66 89 103 131 144 149 144 142 148 158 165
224 204 209 225 232 230 236 214 209 244 257 277 293 310 318 283 305 317 310 325 18 29 33 34 25 25 33 43 28 21 32 32 49 37 52 71 53 67 79 89 102 113 131 137 140 143 150 155 155
Height
5898 5898 5898 5898 5899 5896 5894 5893 5889 5885 5885 5883 5883 5883 5879 5880 5884 5882 5877 5870 5866 5863 5864 5863 5859 5855 5854 5851 5849 5847 5845 5842 5840 5839 5836 5833 5830 5828 5827 5826 5825 5823 5823 5824 5825 5827 5829 5830 5834
5895 5895 5895 5894 5896 5891 5892 5888 5885 5882 5880 5877 5879 5879 5876 5876 5876 5876 5869 5867 5866 5862 5861 5857 5853 5848 5847 5845 5842 5839 5837 5834 5832 5829 5827 5825 5822 5820 5817 5816 5815 5814 5813 5814 5814 5816 5818 5821 5824
5892 5891 5893 5892 5892 5888 5886 5882 5883 5878 5877 5876 5874 5873 5868 5870 5868 5868 5861 5858 5858 5856 5854 5851 5847 5843 5839 5836 5835 5832 5829 5827 5824 5820 5817 5814 5812 5809 5807 5805 5804 5804 5803 5803 5804 5806 5808 5811 5815
5888 5889 5888 5888 5887 5885 5885 5885 5876 5877 5876 5871 5866 5865 5866 5864 5868 5863 5857 5854 5851 5850 5847 5845 5841 5839 5836 5833 5829 5827 5822 5818 5814 5810 5808 5805 5802 5800 5798 5796 5793 5791 5792 5792 5793 5795 5797 5801 5805
5884 5885 5886 5887 5886 5881 5880 5877 5878 5875 5873 5869 5865 5858 5859 5859 5860 5858 5853 5849 5845 5844 5841 5838 5835 5831 5828 5826 5824 5819 5815 5811 5806 5802 5799 5795 5793 5791 5788 5785 5783 5781 5780 5781 5782 5785 5787 5790 5794
5881 5879 5882 5881 5882 5878 5875 5871 5871 5872 5870 5867 5862 5858 5855 5852 5855 5852 5848 5844 5840 5838 5835 5832 5828 5824 5821 5818 5813 5809 5805 5802 5797 5793 5789 5785 5782 5779 5776 5774 5772 5770 5769 5769 5771 5773 5776 5780 5784
5877 5873 5877 5875 5875 5876 5874 5864 5867 5865 5862 5861 5861 5856 5852 5850 5849 5845 5842 5839 5836 5833 5828 5824 5820 5818 5816 5815 5810 5804 5799 5793 5788 5784 5779 5775 5771 5768 5765 5763 5760 5758 5758 5757 5759 5761 5763 5768 5773
5872 5868 5872 5871 5869 5872 5869 5859 5862 5861 5858 5855 5852 5851 5848 5847 5844 5841 5837 5833 5829 5827 5825 5822 5818 5814 5810 5807 5803 5798 5792 5786 5780 5776 5771 5765 5761 5757 5754 5751 5749 5747 5746 5746 5748 5750 5752 5756 5762
5865 5863 5868 5866 5864 5864 5861 5860 5860 5858 5856 5853 5845 5846 5845 5843 5837 5833 5831 5828 5826 5824 5822 5815 5809 5805 5800 5796 5793 5790 5783 5776 5771 5766 5761 5756 5752 5747 5744 5741 5739 5736 5736 5736 5737 5739 5741 5746 5752
5858 5855 5862 5860 5858 5857 5858 5857 5856 5856 5854 5848 5840 5836 5838 5839 5836 5831 5827 5824 5821 5817 5814 5808 5804 5798 5795 5791 5787 5782 5776 5770 5764 5759 5754 5748 5743 5739 5735 5732 5729 5727 5726 5726 5726 5728 5732 5738 5744
5853 5849 5853 5854 5853 5852 5851 5852 5851 5850 5847 5845 5840 5837 5835 5834 5832 5828 5823 5820 5816 5812 5807 5802 5799 5794 5789 5785 5780 5773 5768 5762 5757 5750 5744 5740 5737 5732 5728 5724 5722 5719 5716 5715 5715 5718 5724 5731 5736
5840 5844 5845 5845 5846 5844 5845 5845 5845 5843 5843 5838 5835 5834 5832 5830 5828 5825 5821 5815 5811 5808 5804 5799 5794 5789 5784 5778 5773 5768 5762 5757 5751 5746 5740 5735 5730 5725 5720 5717 5715 5711 5708 5706 5708 5711 5717 5724 5731
5832 5835 5839 5839 5840 5839 5841 5840 5838 5838 5837 5833 5830 5828 5828 5826 5825 5823 5818 5813 5809 5805 5800 5793 5788 5783 5777 5772 5767 5762 5756 5751 5746 5741 5736 5730 5724 5718 5715 5711 5709 5705 5702 5701 5703 5706 5712 5720 5726
5827 5826 5827 5830 5833 5833 5834 5834 5831 5834 5832 5827 5827 5825 5825 5822 5819 5815 5812 5808 5804 5800 5793 5787 5783 5778 5773 5768 5762 5756 5751 5747 5742 5737 5731 5725 5718 5713 5709 5706 5703 5700 5698 5698 5700 5703 5710 5716 5724
5817 5818 5820 5821 5824 5828 5828 5824 5827 5827 5827 5823 5821 5820 5820 5816 5813 5811 5809 5806 5801 5794 5789 5783 5778 5773 5769 5763 5757 5752 5747 5742 5737 5732 5726 5720 5715 5708 5704 5701 5699 5695 5694 5696 5698 5703 5709 5715 5722
5807 5809 5809 5815 5821 5824 5822 5819 5824 5823 5821 5821 5817 5816 5812 5808 5807 5805 5803 5800 5794 5789 5784 5780 5774 5768 5763 5758 5753 5748 5744 5739 5734 5727 5721 5716 5710 5704 5700 5697 5694 5692 5691 5694 5697 5702 5708 5713 5720
5801 5802 5807 5813 5815 5818 5815 5813 5815 5818 5819 5815 5812 5810 5806 5802 5800 5802 5798 5794 5790 5785 5780 5774 5770 5765 5760 5755 5750 5745 5740 5735 5729 5722 5716 5711 5706 5701 5696 5694 5692 5690 5689 5692 5696 5701 5707 5713 5721
5799 5800 5802 5807 5811 5809 5810 5810 5812 5813 5811 5810 5808 5806 5803 5799 5797 5797 5794 5790 5786 5782 5776 5770 5766 5761 5757 5752 5747 5742 5737 5731 5725 5719 5714 5709 5703 5698 5695 5693 5691 5688 5689 5692 5696 5701 5706 5713 5721
5792 5793 5796 5801 5803 5806 5808 5808 5808 5808 5809 5805 5804 5802 5801 5797 5795 5793 5789 5786 5782 5778 5772 5767 5763 5758 5753 5749 5744 5740 5734 5728 5722 5717 5712 5707 5702 5697 5693 5692 5690 5689 5689 5691 5694 5699 5706 5713 5719
5785 5787 5791 5794 5796 5797 5802 5803 5803 5803 5803 5804 5801 5797 5794 5794 5792 5789 5785 5782 5779 5774 5769 5764 5760 5755 5750 5746 5742 5737 5731 5726 5720 5715 5710 5705 5700 5695 5694 5692 5691 5690 5690 5692 5695 5701 5708 5713 5719
5780 5783 5787 5791 5794 5796 5798 5798 5801 5802 5801 5798 5795 5791 5789 5790 5789 5784 5781 5778 5775 5770 5765 5761 5757 5752 5748 5744 5740 5735 5730 5724 5719 5714 5709 5703 5699 5695 5694 5693 5692 5692 5692 5695 5699 5704 5710 5714 5722
5773 5782 5783 5786 5789 5789 5794 5791 5794 5795 5795 5794 5790 5787 5785 5784 5784 5782 5778 5774 5771 5767 5762 5758 5754 5750 5746 5743 5739 5734 5728 5723 5718 5714 5708 5703 5700 5696 5695 5695 5694 5694 5694 5697 5701 5707 5712 5718 5724
5773 5776 5778 5781 5783 5785 5788 5787 5790 5792 5791 5788 5783 5787 5782 5779 5780 5778 5775 5771 5768 5764 5759 5755 5752 5748 5744 5741 5737 5733 5728 5724 5719 5714 5708 5704 5700 5697 5697 5697 5697 5696 5697 5700 5704 5710 5715 5721 5727
5765 5768 5772 5775 5778 5775 5781 5784 5786 5785 5785 5782 5781 5781 5779 5776 5775 5774 5771 5768 5765 5761 5757 5753 5749 5746 5743 5740 5736 5732 5728 5724 5720 5713 5709 5706 5702 5700 5698 5698 5699 5698 5701 5703 5707 5712 5718 5724 5730
5754 5762 5764 5767 5768 5767 5778 5779 5782 5783 5782 5781 5777 5777 5777 5774 5771 5769 5768 5765 5763 5759 5755 5751 5747 5744 5741 5738 5735 5732 5728 5725 5720 5714 5709 5707 5705 5703 5700 5700 5701 5703 5705 5707 5710 5715 5720 5725 5731
5748 5754 5756 5758 5763 5769 5775 5773 5778 5776 5778 5777 5776 5776 5774 5771 5769 5766 5765 5763 5760 5757 5753 5749 5746 5742 5739 5737 5734 5731 5728 5725 5720 5715 5711 5707 5705 5703 5702 5701 5702 5704 5707 5710 5713 5718 5722 5727 5732
5743 5744 5756 5758 5763 5766 5769 5770 5773 5775 5775 5775 5774 5774 5773 5768 5766 5764 5762 5761 5759 5756 5752 5748 5745 5742 5738 5736 5734 5732 5729 5725 5721 5717 5713 5709 5706 5704 5703 5702 5703 5706 5709 5713 5716 5720 5724 5728 5733
5734 5746 5750 5751 5755 5759 5763 5766 5768 5769 5769 5770 5770 5772 5770 5767 5764 5762 5760 5759 5757 5754 5751 5748 5744 5741 5738 5735 5734 5732 5729 5726 5722 5719 5715 5712 5709 5707 5705 5705 5705 5707 5712 5715 5718 5721 5725 5729 5734
5729 5733 5742 5749 5752 5755 5759 5763 5765 5766 5767 5765 5767 5768 5766 5763 5762 5760 5758 5757 5756 5753 5750 5747 5744 5741 5738 5736 5735 5732 5731 5728 5725 5721 5717 5716 5713 5712 5710 5710 5709 5710 5713 5717 5720 5724 5727 5731 5735
5726 5730 5736 5739 5745 5750 5755 5759 5761 5761 5763 5765 5766 5764 5764 5761 5760 5757 5756 5756 5755 5753 5750 5748 5746 5742 5739 5737 5736 5734 5733 5730 5727 5723 5721 5719 5718 5716 5714 5714 5714 5715 5717 5719 5723 5728 5730 5733 5738